Weather reports worldwide

Advertisment
List/Sylt, Germany (10020): temperature & dewpoint: 16.01.2019 04:00:00 - 22.01.2019 04:00:00 (CET)List/Sylt, Germany (10020): temperature 5cm & temperature -5cm: 16.01.2019 04:00:00 - 22.01.2019 04:00:00 (CET)List/Sylt, Germany (10020): temperature -20cm: 16.01.2019 04:00:00 - 22.01.2019 04:00:00 (CET)List/Sylt, Germany (10020): wind speed & gusts: 16.01.2019 04:00:00 - 22.01.2019 04:00:00 (CET)List/Sylt, Germany (10020): wind direction: 16.01.2019 04:00:00 - 22.01.2019 04:00:00 (CET)List/Sylt, Germany (10020): reduced air pressure: 16.01.2019 04:00:00 - 22.01.2019 04:00:00 (CET)List/Sylt, Germany (10020): visibility: 16.01.2019 04:00:00 - 22.01.2019 04:00:00 (CET)List/Sylt, Germany (10020): sunshine duration: 16.01.2019 04:00:00 - 22.01.2019 04:00:00 (CET)List/Sylt, Germany (10020): precipitation: 16.01.2019 04:00:00 - 22.01.2019 04:00:00 (CET)
Date & Time tt [°C] td [°C] tt 5cm [°C] tt -5cm [°C] tt -20cm [°C] ff [km/h] ff [kn] fx [km/h] fx [kn] dd ppp [hPa] vv [km] sd [min] rr [mm]
22.01.2019 04:00:00 2,4 1,6 2,0 1,6 2,4 27 14 36 20 SSW 1011,1 2,1 0 0,0
22.01.2019 03:00:00 2,6 1,5 1,0 1,7 2,5 17 9 22 12 SSW 1012,0 25 0 0,0
22.01.2019 02:00:00 2,9 1,4 1,2 1,7 2,5 14 8 20 11 S 1012,8 31 0 0,0
22.01.2019 01:00:00 2,4 1,0 0,1 1,8 2,5 13 7 16 9 SSW 1013,5 26 0 0,0
22.01.2019 00:00:00 2,5 0,9 0,2 1,9 2,6 13 7 17 9 SSW 1014,0 27 0 0,0
21.01.2019 23:00:00 2,2 0,7 0,0 1,9 2,6 14 8 16 9 SW 1014,6 31 0 0,0
21.01.2019 22:00:00 2,7 1,4 0,7 2,0 2,6 13 7 18 10 WSW 1015,1 25 0 0,0
21.01.2019 21:00:00 3,2 1,3 1,0 2,1 2,7 14 8 17 9 W 1015,3 24 0 0,0
21.01.2019 20:00:00 3,3 1,9 0,5 2,1 2,7 9 5 14 7 W 1015,6 21 0 0,0
21.01.2019 19:00:00 3,4 1,5 1,4 2,2 2,7 13 7 19 11 WNW 1016,0 26 0 0,0
21.01.2019 18:00:00 3,4 1,1 1,7 2,3 2,7 16 9 24 13 NW 1016,2 25 0 0,0
21.01.2019 17:00:00 4,0 1,3 2,3 2,5 2,7 21 11 29 16 WNW 1016,2 27 2 0,0
21.01.2019 16:00:00 4,7 1,5 3,5 2,7 2,6 23 12 30 16 W 1016,3 28 60 0,0
21.01.2019 15:00:00 4,9 1,2 4,8 2,7 2,5 22 12 36 19 W 1016,7 35 48 0,0
21.01.2019 14:00:00 5,3 1,9 5,8 2,4 2,3 23 13 32 17 W 1017,1 35 59 0,0
21.01.2019 13:00:00 5,2 1,1 5,7 2,0 2,2 25 14 36 19 WNW 1017,4 35 60 0,0
21.01.2019 12:00:00 4,5 1,4 5,1 1,7 2,1 27 15 38 21 WNW 1017,8 38 55 0,0
21.01.2019 11:00:00 5,0 2,5 5,1 1,5 2,1 22 12 31 17 W 1018,2 22 60 0,0
21.01.2019 10:00:00 4,2 1,7 3,0 1,4 2,1 19 10 28 15 W 1018,2 25 23 0,0
21.01.2019 09:00:00 3,7 1,3 2,1 1,4 2,1 21 11 28 15 W 1018,1 29 0 0,0
21.01.2019 08:00:00 2,9 1,5 1,4 1,3 2,1 18 10 23 13 WSW 1018,0 24 0 0,0
21.01.2019 07:00:00 3,1 1,3 2,3 1,3 2,1 23 12 53 28 NW 1018,1 16 0 0,5
21.01.2019 06:00:00 3,4 1,0 2,3 1,3 2,2 29 16 48 26 WSW 1018,3 9 0 0,1
21.01.2019 05:00:00 3,3 -0,8 2,4 1,3 2,2 30 16 44 24 SW 1018,6 34 0 0,0
21.01.2019 04:00:00 2,9 -1,0 1,8 1,3 2,2 29 15 40 22 SW 1019,4 33 0 0,0
21.01.2019 03:00:00 2,9 -1,0 2,0 1,3 2,2 25 13 38 20 SW 1020,1 38 0 0,0
21.01.2019 02:00:00 2,5 -1,5 1,4 1,4 2,3 26 14 35 19 SW 1020,2 45 0 0,0
21.01.2019 01:00:00 1,9 -1,8 0,0 1,5 2,3 21 12 31 17 SW 1020,9 41 0 0,0
21.01.2019 00:00:00 1,6 -1,8 -0,3 1,5 2,3 19 10 27 15 SW 1021,4 39 0 0,0
20.01.2019 23:00:00 1,5 -1,7 -0,5 1,6 2,4 18 10 25 14 SW 1021,3 42 0 0,0
20.01.2019 22:00:00 1,4 -1,8 -0,5 1,6 2,4 16 9 22 12 SW 1021,3 38 0 0,0
20.01.2019 21:00:00 1,6 -1,9 -0,1 1,7 2,4 17 9 22 12 SW 1021,0 40 0 0,0
20.01.2019 20:00:00 1,8 -1,6 0,4 1,7 2,4 16 9 19 10 SW 1020,9 44 0 0,0
20.01.2019 19:00:00 1,3 -1,0 -0,2 1,7 2,3 11 6 15 8 SSW 1020,7 27 0 0,0
20.01.2019 18:00:00 1,8 -0,6 0,0 1,7 2,3 11 6 13 7 SSW 1020,4 23 0 0,0
20.01.2019 17:00:00 2,0 -0,9 0,1 1,7 2,3 9 5 12 7 SSW 1020,2 26 0 0,0
20.01.2019 16:00:00 2,5 0,0 1,8 1,7 2,3 8 4 16 8 SSW 1020,0 19 0 0,0
20.01.2019 15:00:00 2,6 0,2 2,7 1,5 2,2 12 7 16 9 SSW 1019,8 15 2 0,0
20.01.2019 14:00:00 2,2 0,2 3,0 1,4 2,2 11 6 16 9 SSW 1019,9 9 0 0,0
20.01.2019 13:00:00 1,9 0,1 2,4 1,4 2,2 12 7 21 11 S 1019,9 9 0 0,0
20.01.2019 12:00:00 1,5 -0,3 1,9 1,4 2,2 12 6 17 9 S 1019,8 9 0 0,0
20.01.2019 11:00:00 1,0 -0,5 1,0 1,3 2,3 13 7 16 9 S 1019,5 7 0 0,0
20.01.2019 10:00:00 0,6 -0,9 0,0 1,4 2,3 9 5 15 8 SSE 1019,2 8 0 0,0
20.01.2019 09:00:00 0,5 -1,3 -0,4 1,4 2,3 10 6 16 8 SSE 1018,6 10 0 0,0
20.01.2019 08:00:00 0,5 -1,3 -0,5 1,4 2,3 10 6 16 9 SSE 1017,9 10 0 0,0
20.01.2019 07:00:00 0,6 -1,0 -0,3 1,4 2,4 9 5 18 10 SSE 1017,7 10 0 0,0
20.01.2019 06:00:00 1,1 -0,9 0,1 1,5 2,4 11 6 19 11 S 1017,7 12 0 0,0
20.01.2019 05:00:00 1,4 -0,7 0,3 1,5 2,4 14 8 21 12 S 1017,6 13 0 0,0
20.01.2019 04:00:00 1,5 -0,8 0,2 1,5 2,5 16 8 23 12 S 1017,6 16 0 0,0
20.01.2019 03:00:00 1,6 -1,0 0,2 1,5 2,5 18 10 24 13 S 1017,6 19 0 0,0
20.01.2019 02:00:00 1,4 -1,2 0,1 1,6 2,5 16 9 23 13 S 1017,7 16 0 0,0
20.01.2019 01:00:00 1,4 -1,2 0,3 1,6 2,6 18 10 24 13 S 1017,6 19 0 0,0
20.01.2019 00:00:00 1,4 -1,1 0,1 1,7 2,6 17 9 29 16 S 1017,6 15 0 0,0
19.01.2019 23:00:00 1,0 -1,8 -0,1 1,7 2,6 22 12 29 16 S 1017,4 16 0 0,0
19.01.2019 22:00:00 0,2 -1,9 -1,1 1,8 2,7 20 11 26 14 SSE 1017,4 9 0 0,0
19.01.2019 21:00:00 0,7 -2,4 -1,0 1,8 2,7 21 12 27 14 SSE 1017,4 13 0 0,0
19.01.2019 20:00:00 0,6 -1,0 -1,0 1,9 2,7 18 10 27 15 SSE 1017,5 6 0 0,0
19.01.2019 19:00:00 1,3 -1,3 -0,3 1,9 2,7 20 11 27 14 S 1017,4 16 0 0,0
19.01.2019 18:00:00 1,7 -1,9 -0,3 2,0 2,7 15 8 23 12 S 1017,4 31 0 0,0
19.01.2019 17:00:00 1,9 -1,6 0,0 2,0 2,7 16 9 23 12 S 1017,4 23 6 0,0
19.01.2019 16:00:00 2,4 -1,6 1,0 2,0 2,7 18 10 24 13 S 1017,4 24 38 0,0
19.01.2019 15:00:00 2,8 -1,7 2,5 2,0 2,6 18 10 27 15 SSW 1017,7 28 60 0,0
19.01.2019 14:00:00 3,4 -1,2 4,9 1,8 2,6 19 11 28 15 S 1018,0 29 60 0,0
19.01.2019 13:00:00 3,8 -0,4 5,4 1,7 2,6 20 11 29 15 SSW 1018,3 23 60 0,0
19.01.2019 12:00:00 3,4 -0,6 4,0 1,7 2,6 17 9 21 12 SSW 1018,6 29 15 0,0
19.01.2019 11:00:00 3,1 0,0 2,4 1,6 2,7 14 7 18 10 SSW 1018,6 32 0 0,0
19.01.2019 10:00:00 2,4 1,0 1,0 1,7 2,7 11 6 19 10 SSW 1018,5 16 0 0,0
19.01.2019 09:00:00 2,1 1,2 0,6 1,7 2,7 13 7 18 10 SSW 1018,0 13 0 0,0
19.01.2019 08:00:00 2,5 0,8 0,8 1,7 2,8 16 8 20 11 S 1017,7 30 0 0,0
19.01.2019 07:00:00 2,3 -0,7 0,6 1,7 2,9 15 8 20 11 SSW 1017,6 50 0 0,0
19.01.2019 06:00:00 2,1 0,2 -0,3 1,8 2,9 14 7 18 10 SSW 1017,6 38 0 0,0
19.01.2019 05:00:00 2,0 -1,1 -0,6 1,9 3,0 14 7 16 9 SW 1017,9 50 0 0,0
19.01.2019 04:00:00 2,2 0,6 -0,1 2,0 3,0 12 6 16 9 SSW 1018,1 35 0 0,0
19.01.2019 03:00:00 2,2 0,4 0,1 2,1 3,1 14 8 16 9 SW 1018,2 31 0 0,0
19.01.2019 02:00:00 2,2 0,6 -0,3 2,2 3,1 12 7 15 8 SW 1018,3 32 0 0,0
19.01.2019 01:00:00 2,0 0,5 -0,3 2,2 3,2 13 7 18 10 SW 1018,3 32 0 0,0
19.01.2019 00:00:00 2,4 0,0 0,0 2,3 3,2 13 7 18 10 WSW 1018,1 54 0 0,0
18.01.2019 23:00:00 2,9 0,5 0,7 2,4 3,3 13 7 17 9 W 1017,9 37 0 0,0
18.01.2019 22:00:00 2,8 0,5 1,1 2,4 3,3 15 8 22 12 W 1017,9 46 0 0,0
18.01.2019 21:00:00 3,0 0,0 1,0 2,5 3,4 13 7 19 10 WNW 1017,5 39 0 0,0
18.01.2019 20:00:00 3,1 -0,1 1,0 2,5 3,4 13 7 16 9 W 1017,2 44 0 0,0
18.01.2019 19:00:00 3,0 -0,1 0,8 2,6 3,4 11 6 13 7 W 1016,9 26 0 0,0
18.01.2019 18:00:00 2,8 -1,1 0,4 2,7 3,5 9 5 18 10 NW 1017,0 39 0 0,0
18.01.2019 17:00:00 2,9 0,3 0,7 2,8 3,5 13 7 16 8 W 1016,9 29 0 0,0
18.01.2019 16:00:00 3,5 0,5 2,1 2,9 3,5 11 6 21 11 W 1016,7 32 23 0,0
18.01.2019 15:00:00 3,7 -0,3 3,1 2,9 3,4 16 8 23 12 W 1016,3 41 43 0,0
18.01.2019 14:00:00 4,6 0,6 5,6 2,7 3,4 16 8 23 13 W 1016,2 38 60 0,0
18.01.2019 13:00:00 4,4 -0,2 5,7 2,5 3,4 18 10 26 14 WNW 1016,0 34 60 0,0
18.01.2019 12:00:00 3,8 -0,3 4,7 2,5 3,4 21 11 29 15 WNW 1015,7 39 60 0,0
18.01.2019 11:00:00 3,3 -0,4 2,8 2,5 3,5 23 12 30 16 NW 1015,3 36 59 0,0
18.01.2019 10:00:00 2,6 -1,8 1,0 2,6 3,6 20 11 44 24 NW 1014,6 41 18 0,1
18.01.2019 09:00:00 1,5 -1,0 0,2 2,6 3,6 38 21 49 26 NNW 1014,0 2,2 0 0,1
18.01.2019 08:00:00 2,6 -2,3 0,8 2,7 3,7 21 12 31 17 NNW 1013,1 33 0 0,0
18.01.2019 07:00:00 2,9 -2,1 1,2 2,7 3,8 24 13 31 17 NW 1012,6 36 0 0,0
18.01.2019 06:00:00 2,1 -2,2 0,0 2,8 3,8 14 8 22 12 WNW 1012,2 35 0 0,0
18.01.2019 05:00:00 0,5 -3,0 -2,2 2,9 3,9 14 8 16 8 SSW 1011,8 41 0 0,0
18.01.2019 04:00:00 0,7 -4,6 -7,4 3,0 4,0 5 3 10 6 S 1011,7 63 0 0,0
18.01.2019 03:00:00 0,3 -5,0 -4,1 3,1 4,1 10 5 14 8 N 1011,1 54 0 0,0
18.01.2019 02:00:00 -0,6 -5,3 -3,2 3,2 4,2 15 8 23 12 N 1010,5 64 0 0,0
18.01.2019 01:00:00 -0,3 -5,2 -2,5 3,3 4,2 21 11 45 24 N 1009,8 65 0 0,0
18.01.2019 00:00:00 0,3 -5,6 -1,3 3,4 4,3 31 17 48 26 N 1008,3 64 0 0,0
17.01.2019 23:00:00 0,2 -5,2 -1,8 3,5 4,4 32 18 50 27 N 1007,5 54 0 0,0
17.01.2019 22:00:00 0,4 -3,4 -1,3 3,6 4,5 39 21 53 29 N 1006,2 48 0 0,0
17.01.2019 21:00:00 0,4 -3,4 -1,0 3,7 4,6 33 18 45 25 NNW 1004,6 64 0 0,0
17.01.2019 20:00:00 -0,8 -2,5 -1,1 3,9 4,7 23 12 56 30 N 1003,0 51 0 0,0
17.01.2019 19:00:00 -0,7 -1,7 -0,8 4,0 4,8 24 13 63 34 NNE 1001,2 43 0 0,4
17.01.2019 18:00:00 0,1 -0,9 0,0 4,1 4,8 24 13 58 31 NNE 999,3 3,5 0 0,2
17.01.2019 17:00:00 0,8 -1,7 0,7 4,4 4,9 45 25 60 32 NNE 996,6 37 0 0,0
17.01.2019 16:00:00 3,5 0,3 2,5 4,5 4,9 34 19 46 25 NW 994,8 27 0 0,0
17.01.2019 15:00:00 3,2 1,2 2,7 4,7 4,9 30 16 51 28 NW 994,2 33 0 0,0
17.01.2019 14:00:00 4,4 1,3 3,8 4,8 4,9 32 17 46 25 WNW 993,5 29 8 0,1
17.01.2019 13:00:00 3,7 1,7 3,8 4,7 4,9 29 16 42 23 NW 993,2 39 21 0,0
17.01.2019 12:00:00 3,6 1,2 3,6 4,5 4,9 41 22 53 29 NW 992,6 48 1 0,0
17.01.2019 11:00:00 4,5 3,1 4,0 4,5 4,9 32 17 45 25 W 991,5 28 0 0,0
17.01.2019 10:00:00 4,8 2,7 4,0 4,5 4,9 24 13 49 26 W 990,9 27 0 0,0
17.01.2019 09:00:00 4,2 2,6 3,1 4,5 5,0 27 15 48 26 WSW 990,5 23 0 0,3
17.01.2019 08:00:00 4,9 2,5 3,9 4,5 5,0 34 19 48 26 WSW 990,4 18 0 0,0
17.01.2019 07:00:00 4,6 1,8 3,3 4,6 5,1 34 19 54 29 W 990,7 28 0 0,0
17.01.2019 06:00:00 5,3 2,4 4,2 4,6 5,2 32 17 48 26 WSW 991,0 20 0 0,0
17.01.2019 05:00:00 4,8 2,2 3,3 4,7 5,3 32 18 63 34 WSW 991,3 21 0 0,1
17.01.2019 04:00:00 5,0 1,8 3,5 4,8 5,3 32 17 61 33 W 991,5 24 0 0,0
17.01.2019 03:00:00 4,5 1,5 3,3 5,0 5,4 36 20 61 33 W 991,7 27 0 0,0
17.01.2019 02:00:00 4,7 2,3 3,4 5,2 5,4 28 15 53 29 WSW 991,9 23 0 0,0
17.01.2019 01:00:00 5,0 3,1 4,2 5,3 5,5 21 11 49 26 W 992,2 21 0 0,0
17.01.2019 00:00:00 4,9 2,6 4,1 5,4 5,5 36 20 48 26 WSW 992,3 35 0 0,3
16.01.2019 23:00:00 5,1 3,6 4,6 5,5 5,5 30 16 44 24 WSW 992,9 17 0 0,3
16.01.2019 22:00:00 5,3 4,4 4,9 5,6 5,5 24 13 77 41 W 993,1 9 0 1,0
16.01.2019 21:00:00 6,0 5,0 5,7 5,7 5,5 56 30 78 42 SW 992,2 4,8 0 0,1
16.01.2019 20:00:00 6,1 5,3 5,8 5,7 5,5 48 26 68 37 SW 993,2 5 0 0,2
16.01.2019 19:00:00 6,0 5,2 5,8 5,7 5,5 50 27 68 37 SW 993,7 7 0 0,8
16.01.2019 18:00:00 6,2 5,7 6,1 5,7 5,5 43 23 61 33 SW 994,9 2,8 0 0,2
16.01.2019 17:00:00 6,4 5,7 6,2 5,8 5,5 42 23 57 31 SW 995,8 8 0 0,0
16.01.2019 16:00:00 6,7 6,0 6,5 5,8 5,4 37 20 58 31 SW 996,5 5 0 0,0
16.01.2019 15:00:00 6,9 5,7 7,2 5,7 5,4 35 19 53 29 SW 997,1 11 0 0,0
16.01.2019 14:00:00 6,7 5,7 6,8 5,6 5,3 37 20 56 30 SW 997,8 10 0 0,0
16.01.2019 13:00:00 6,7 5,5 6,7 5,6 5,3 38 20 54 29 SW 998,6 11 0 0,0
16.01.2019 12:00:00 6,5 5,6 6,2 5,5 5,2 36 20 53 29 SW 999,2 - 0 0,0
16.01.2019 11:00:00 6,6 5,4 6,6 5,4 5,2 36 19 54 29 SW 1000,1 - 0 0,0
16.01.2019 10:00:00 6,6 5,5 6,4 5,3 5,2 29 16 52 28 WSW 1000,8 - 0 0,0
16.01.2019 09:00:00 6,5 5,4 6,2 5,3 5,2 37 20 53 28 SW 1001,0 - 0 0,0
16.01.2019 08:00:00 6,5 5,4 6,1 5,3 5,1 31 17 50 27 SW 1001,1 - 0 0,0
16.01.2019 07:00:00 6,4 5,4 6,1 5,2 5,1 29 15 45 24 WSW 1001,9 - 0 0,0
16.01.2019 06:00:00 6,4 5,2 5,9 5,2 5,1 32 17 47 25 WSW 1002,2 - 0 0,0
16.01.2019 05:00:00 6,4 5,1 5,9 5,2 5,1 31 17 49 26 WSW 1002,9 - 0 0,0
16.01.2019 04:00:00 6,4 5,0 5,9 5,2 5,1 36 19 50 27 WSW 1003,5 - 0 0,0

tt = temperature
td = dewpoint
tt 5cm = temperature 5cm
tt -5cm = temperature -5cm
tt -20cm = temperature -20cm
ff = wind speed
fx = gusts
dd = wind direction
ppp = reduced air pressure
vv = visibility
sd = sunshine duration
rr = precipitation

Next stations